Theta_e
292 293 293 293 293 294 295 295 296 296 297 298 299 299 300 301 303 304 305 306 307 308 308 309 309 309 309 309 309 309 309 308 308 309 310 310 311 311 311 311 311 311 311 311 311 311 310 310 310 310 311 312 314 315 316 318 319 320 320 320 320 320 321 321 321 321 320 320 320 319 318 318 320 320 318 313 311 313 313 311 312 314 316 317 317
290 291 291 292 292 293 293 293 294 294 295 296 296 297 298 299 300 301 302 303 304 305 306 307 307 307 308 308 308 308 308 308 308 308 308 309 310 311 311 311 311 311 310 310 309 309 309 310 310 310 311 312 312 313 313 313 315 316 317 317 318 318 319 319 320 320 320 320 319 319 319 320 320 319 318 316 313 314 313 310 310 312 314 316 316
289 289 290 290 291 291 292 292 293 293 293 294 295 296 296 297 298 299 300 301 302 303 303 304 305 306 306 307 307 307 307 307 307 307 307 308 308 308 309 309 309 309 308 307 307 307 307 307 308 309 310 311 311 311 312 312 313 313 314 315 316 316 317 318 318 319 319 318 318 318 318 318 319 319 318 318 317 315 312 311 312 311 310 312 314
287 288 288 288 289 290 290 291 291 292 292 293 293 294 295 295 296 296 297 299 300 301 302 302 303 304 305 305 305 306 306 307 307 307 307 307 307 307 307 307 307 307 307 307 306 306 306 305 306 306 308 309 309 309 310 311 311 312 312 312 313 314 315 316 317 317 317 317 316 316 315 315 316 317 318 318 317 315 313 311 312 311 310 311 312
286 287 287 287 287 288 288 289 289 290 291 291 291 292 293 294 295 295 296 296 297 299 300 301 301 302 303 304 304 305 305 305 306 306 307 307 307 307 306 306 306 306 306 306 306 306 306 306 305 306 307 307 307 307 308 309 309 310 310 310 310 311 312 313 313 314 315 316 316 315 315 315 315 315 316 316 316 316 315 313 310 310 310 311 310
286 286 286 286 286 287 287 287 288 288 289 289 290 290 291 292 293 294 295 295 296 296 297 299 300 301 301 302 302 303 304 304 304 305 305 306 306 306 306 306 306 305 305 305 305 305 305 305 305 305 306 306 306 306 307 308 309 309 309 309 309 310 309 310 310 311 313 314 314 314 314 315 315 313 314 316 315 315 315 315 312 310 311 311 309
285 285 285 286 286 286 286 286 287 287 287 288 288 289 289 290 291 292 293 294 295 295 296 297 298 299 300 301 301 302 303 303 303 303 304 304 305 305 306 306 306 305 305 305 305 305 305 305 305 305 305 305 305 306 306 307 308 308 308 309 308 308 309 309 309 310 311 312 312 312 312 313 313 312 313 314 314 314 315 316 314 312 313 313 311
285 285 285 285 285 285 286 286 286 286 287 287 287 287 288 288 289 290 290 292 293 294 294 295 296 297 298 299 300 301 301 302 302 302 302 303 303 304 304 305 305 305 305 305 305 305 305 305 305 305 305 305 306 306 306 307 307 307 308 308 308 308 308 308 308 309 310 311 311 311 311 311 312 311 312 313 313 314 314 314 314 312 313 314 312
285 285 285 285 285 285 285 285 285 286 286 286 286 287 287 287 288 288 289 289 290 291 292 293 294 295 296 297 298 300 300 300 301 301 301 302 302 302 303 303 304 304 305 305 305 305 305 305 305 305 305 306 306 306 306 307 307 307 307 307 308 308 307 307 308 308 308 309 310 309 310 310 309 309 311 312 312 313 313 313 314 313 314 315 314
285 285 285 285 285 285 285 285 285 285 285 286 286 286 286 287 287 287 288 288 289 289 290 291 292 293 294 296 297 298 299 300 300 300 300 300 301 301 302 302 302 303 303 303 304 304 304 304 304 305 305 305 305 306 306 307 307 307 307 307 307 307 307 307 307 308 307 308 308 308 308 309 308 308 309 309 310 311 311 312 313 313 313 313 312
284 284 284 284 284 284 284 285 285 285 285 285 285 286 286 286 286 286 287 287 288 288 288 289 290 291 292 293 295 296 297 299 299 299 299 299 300 300 301 301 301 302 302 302 302 303 303 303 303 303 303 304 304 305 305 306 306 307 307 307 307 307 307 307 307 307 307 307 307 307 307 308 307 308 308 307 308 309 310 311 311 311 311 311 311
283 283 283 283 283 283 284 284 284 284 285 285 285 285 286 286 286 286 286 286 287 287 288 288 289 290 291 291 293 294 295 297 298 298 299 298 299 299 300 300 301 301 301 302 302 302 302 302 303 303 303 303 303 304 304 305 305 306 306 306 306 306 306 307 307 307 307 307 307 307 307 307 307 307 307 307 308 308 308 309 309 310 310 310 310
282 282 282 282 282 282 283 283 283 284 284 284 284 285 285 285 285 285 285 285 286 286 287 288 288 289 290 291 291 292 294 295 296 297 297 298 297 298 299 299 300 300 301 301 301 302 302 302 302 302 302 303 303 303 304 304 304 305 305 306 306 306 306 306 306 306 306 306 306 306 307 306 306 307 306 306 306 306 306 306 307 307 308 308 309
282 282 282 282 282 282 282 282 283 283 283 284 284 284 285 285 285 285 285 285 285 285 286 287 288 288 289 290 290 291 292 293 294 295 296 296 296 297 297 298 299 299 300 300 301 301 301 302 302 302 302 302 303 303 303 304 304 304 304 305 305 305 305 305 305 305 305 305 305 305 306 306 305 306 306 305 305 305 305 305 305 305 306 307 307
281 281 281 281 281 281 281 281 282 282 283 283 283 283 284 284 284 284 284 284 284 285 286 286 286 287 287 287 288 289 290 291 292 293 294 294 294 295 295 296 297 298 299 300 300 300 301 301 301 302 302 302 302 302 303 303 303 303 303 304 304 304 305 305 305 305 305 304 304 304 305 305 304 305 305 305 304 303 303 304 304 305 305 305 306
280 280 280 280 280 280 280 281 281 281 282 282 282 283 283 283 283 283 284 284 284 284 285 286 286 285 285 285 286 287 288 289 290 290 291 291 291 292 293 294 295 296 297 298 298 299 299 300 300 301 301 301 301 301 301 301 302 302 302 303 303 303 304 303 303 304 304 303 303 303 304 304 304 304 304 304 304 303 302 302 304 304 302 302 304
279 279 279 279 280 280 280 280 280 281 281 281 281 282 282 282 283 283 283 283 283 284 284 285 285 285 284 284 285 285 286 287 287 288 289 288 288 289 289 290 292 293 294 295 296 297 298 298 299 299 300 300 299 299 299 299 300 300 300 301 302 302 302 302 302 302 302 302 302 303 303 303 303 303 303 303 303 302 301 301 303 303 300 300 303
279 279 279 279 279 279 279 279 280 280 280 280 281 281 281 282 282 282 281 281 282 283 283 284 284 284 284 284 284 284 285 285 286 286 286 286 286 286 286 287 288 290 291 292 293 294 295 296 296 297 297 298 297 297 297 297 297 298 298 299 300 301 301 300 300 301 301 300 301 301 301 302 302 302 302 302 302 301 299 300 301 301 299 298 300
278 278 278 278 278 279 279 279 279 279 279 280 280 280 280 281 281 281 280 281 281 282 283 283 283 284 284 284 284 284 285 285 285 285 285 285 285 285 285 285 285 286 288 289 290 292 292 293 294 294 295 295 295 295 295 295 295 296 296 296 298 299 299 298 298 299 299 299 300 300 300 300 300 301 301 301 301 300 299 299 299 299 298 298 298
277 277 278 278 278 278 278 278 278 278 278 279 279 279 280 280 280 280 280 280 281 281 282 282 283 283 284 284 284 284 285 284 284 284 285 285 284 284 284 284 284 284 284 285 287 289 289 290 291 292 292 293 293 293 293 293 293 293 294 294 295 297 297 295 296 297 298 298 298 299 299 299 299 299 300 300 300 299 299 298 298 298 297 297 298
277 276 277 277 277 277 277 277 278 278 278 278 279 279 279 279 279 279 279 280 280 280 281 281 282 283 283 283 283 284 284 284 284 284 284 284 283 283 283 283 283 283 283 283 284 285 286 287 288 289 290 291 291 291 291 291 291 291 292 293 294 294 294 294 295 296 296 297 297 297 297 298 298 298 298 299 299 298 297 297 296 296 297 297 298
276 276 276 276 276 276 276 277 277 277 277 278 278 279 279 278 278 279 279 279 279 280 280 280 281 282 282 282 282 282 283 283 283 283 283 282 282 282 282 282 282 282 282 283 283 284 285 286 286 287 288 288 289 290 290 290 290 291 291 292 292 292 292 293 293 294 294 295 295 295 296 296 296 297 297 297 297 296 295 295 295 295 296 296 296
275 275 275 275 275 275 276 276 276 276 277 277 277 278 278 278 278 278 278 278 279 279 279 280 280 280 281 280 281 281 282 282 282 282 281 281 281 281 281 281 281 281 282 283 283 283 284 285 286 286 285 286 287 289 289 290 290 290 290 291 291 291 291 292 292 292 293 293 294 294 294 294 294 295 295 295 295 294 294 294 294 294 294 295 295
275 275 275 275 275 275 275 275 275 276 276 276 276 277 277 277 277 277 277 278 278 278 278 278 278 279 279 279 280 280 280 280 280 280 280 280 281 281 281 281 281 281 281 282 283 283 284 284 284 284 284 285 287 288 289 289 289 289 289 290 290 290 291 291 291 291 292 292 292 293 293 293 293 293 293 293 293 293 293 293 293 293 294 294 295
275 275 275 274 274 275 275 275 275 275 275 276 276 276 276 276 276 277 277 277 277 277 277 277 277 277 278 278 278 278 277 278 278 279 279 279 280 280 280 280 280 280 281 282 283 283 283 283 283 284 284 285 286 287 288 288 289 289 289 289 289 290 290 290 290 290 290 291 291 291 292 292 292 292 292 292 292 292 292 292 293 293 293 294 294
275 275 274 274 274 274 274 274 274 274 275 275 275 276 276 276 276 276 276 276 276 276 276 276 276 276 276 277 277 276 276 276 277 277 278 279 279 279 279 279 279 279 281 282 282 282 282 283 283 284 285 285 286 286 287 288 288 288 288 288 288 289 289 289 289 290 290 290 290 291 291 291 291 291 291 291 291 291 291 292 292 292 292 293 293
274 274 274 274 274 274 274 274 274 274 274 274 275 275 275 275 275 275 275 275 275 275 275 274 275 275 276 276 276 275 275 276 276 277 277 278 278 278 278 278 278 279 280 280 280 280 281 282 283 283 284 284 285 285 285 286 287 287 287 287 288 288 288 288 288 289 289 289 289 290 290 290 290 290 290 290 290 290 291 291 291 291 291 292 292
274 274 273 273 273 273 273 274 274 274 274 274 274 274 274 274 274 274 274 274 274 274 274 273 273 274 275 275 275 275 275 275 275 275 276 276 276 276 276 278 278 279 279 279 278 279 280 281 282 282 283 283 284 284 284 284 285 285 285 286 287 287 287 287 287 287 288 288 288 289 289 289 289 289 289 289 290 290 290 290 290 290 291 291 291
273 273 273 273 273 273 273 273 273 273 273 273 273 273 273 274 274 274 274 273 273 273 273 273 273 274 275 274 274 274 274 274 274 274 274 274 275 275 276 277 278 278 278 277 278 280 280 280 281 281 281 281 282 282 282 282 282 283 283 283 284 284 285 285 285 286 286 287 287 287 287 288 288 289 289 289 289 289 289 289 290 290 290 290 289
272 272 272 272 272 272 272 272 272 273 273 273 273 273 273 273 273 274 273 273 273 273 273 273 273 273 274 273 273 274 274 274 274 274 274 274 275 276 276 277 278 278 277 278 279 280 280 279 280 280 280 280 281 281 281 281 281 281 282 282 282 282 282 283 283 284 284 285 285 285 285 286 287 287 288 288 288 289 289 289 289 289 289 289 289
272 272 271 271 271 271 271 272 272 272 272 272 272 272 272 273 273 273 273 273 273 273 274 274 273 273 273 273 273 274 274 274 274 274 275 275 275 276 276 277 277 277 277 278 278 279 278 278 278 278 279 279 280 280 280 280 280 281 281 281 281 281 281 282 282 282 283 283 283 283 283 284 284 285 286 287 287 288 288 288 288 288 288 288 288
271 271 270 270 270 270 271 271 271 271 271 271 271 271 271 272 272 272 273 273 273 273 273 273 273 273 273 273 273 273 274 274 274 274 275 275 275 275 276 276 276 277 277 277 277 277 277 277 277 278 278 279 279 279 279 279 280 280 281 281 281 281 281 282 282 282 282 282 283 283 283 283 283 284 284 285 285 286 286 286 287 287 287 288 287
271 270 270 270 270 270 270 270 270 270 271 271 271 271 271 271 271 271 272 273 273 273 273 273 273 273 273 273 273 273 273 273 273 274 274 274 275 275 275 276 276 276 276 276 276 276 276 276 276 277 277 278 278 278 278 279 279 280 280 280 281 281 281 281 282 282 282 282 283 283 283 283 283 283 283 283 284 284 284 285 286 286 286 286 287
270 270 269 269 269 269 269 269 270 270 270 270 270 270 270 270 270 270 270 271 271 272 273 273 272 272 272 272 273 273 273 273 273 273 273 274 274 274 275 275 275 275 275 275 275 275 275 275 275 276 276 276 277 277 277 278 278 278 279 279 280 280 281 281 281 281 282 282 283 283 283 283 283 283 283 283 283 284 284 284 285 285 285 285 286
270 269 269 269 269 269 269 269 269 269 269 269 269 269 269 269 269 269 269 269 270 270 271 272 272 272 272 272 272 272 272 272 272 272 272 273 273 274 274 274 274 275 275 275 275 275 274 274 274 274 274 275 275 275 276 276 277 277 277 278 278 279 280 280 280 280 281 281 281 282 282 283 283 283 283 283 283 283 284 284 284 285 285 285 285
269 269 269 268 268 268 268 269 269 269 269 269 269 269 269 269 269 269 269 269 269 269 269 270 271 272 271 271 272 272 272 272 272 272 272 272 272 273 273 274 274 274 274 273 273 273 273 273 273 273 273 273 274 274 275 275 275 275 275 275 276 277 278 278 279 279 279 280 280 280 281 281 282 282 282 283 283 283 283 283 283 284 285 285 285
269 268 268 268 268 268 268 268 268 268 268 268 269 269 269 269 269 269 269 268 268 268 269 269 270 270 271 271 271 271 272 271 271 271 271 271 272 272 272 272 273 272 272 272 272 272 272 272 272 272 272 272 272 273 273 274 274 274 274 274 274 275 276 276 277 277 278 278 279 279 280 280 280 281 281 281 281 281 281 281 282 283 283 284 284
268 268 268 267 268 268 268 268 268 268 268 268 268 268 268 268 268 268 268 268 268 268 268 269 269 269 269 270 270 271 271 271 271 271 271 271 271 271 271 272 272 271 271 271 271 271 271 271 271 271 272 271 272 272 272 273 273 273 273 273 274 274 275 275 275 276 276 277 277 278 278 279 279 279 280 280 280 280 280 280 281 281 282 282 283
268 268 267 267 267 267 267 267 267 267 267 267 267 267 268 268 268 268 268 268 268 268 268 268 268 268 268 268 268 269 270 270 270 270 270 270 270 270 271 271 271 271 271 270 270 270 270 271 271 271 271 271 271 271 271 271 272 272 272 273 273 273 274 274 275 275 275 276 276 276 277 277 278 278 278 278 278 278 279 279 280 280 281 281 281
268 268 268 267 267 267 267 267 267 267 267 267 267 267 267 267 267 267 267 267 267 267 267 267 268 268 267 267 267 267 268 268 269 269 269 269 270 270 270 270 270 270 270 270 270 270 270 270 270 270 270 270 270 271 271 271 271 271 271 271 272 272 273 273 274 274 274 275 275 275 276 276 277 277 277 277 277 278 278 278 279 279 279 280 280
267 267 267 267 267 267 266 266 266 266 266 266 266 266 266 266 266 266 267 266 266 266 266 267 267 267 267 267 267 266 266 267 267 268 268 268 269 269 269 269 269 270 270 270 270 269 269 269 270 270 270 270 270 270 270 270 270 270 270 270 271 271 271 272 272 273 273 274 274 274 275 275 276 276 276 277 277 277 277 277 277 278 278 279 279
267 267 266 266 266 266 266 266 266 266 266 266 266 266 266 266 266 266 266 266 266 266 266 266 267 267 267 267 267 266 266 267 267 267 268 268 268 268 269 269 269 269 269 269 269 269 269 269 269 269 269 269 269 270 270 269 269 269 269 270 270 270 271 271 272 272 273 273 273 274 274 274 275 275 276 276 276 276 276 277 277 277 277 278 278
267 266 266 266 266 266 266 265 265 265 265 266 266 266 266 265 265 265 265 265 265 265 265 266 266 266 267 267 267 267 266 266 267 267 267 267 267 268 268 268 268 269 269 269 269 269 269 269 269 269 269 269 269 269 269 269 269 269 269 269 269 270 270 271 271 272 272 273 273 273 273 274 274 275 275 275 276 276 276 276 276 276 277 277 278
266 266 266 266 266 265 265 265 265 265 265 265 265 265 265 265 265 265 265 265 265 265 265 265 265 265 266 266 266 266 266 266 266 266 267 267 267 267 267 268 268 268 268 269 269 269 269 269 269 269 269 269 268 268 268 268 268 268 268 269 269 269 270 270 271 271 272 272 273 273 273 273 274 274 274 275 275 275 275 275 275 275 276 276 277
266 266 265 265 265 265 265 265 265 265 265 265 265 265 265 265 265 265 265 265 265 265 265 265 265 265 265 265 266 266 266 266 266 266 266 266 267 267 267 267 267 268 268 268 268 268 269 269 269 269 269 269 268 268 268 268 268 268 268 268 268 269 269 270 270 271 271 272 272 273 273 273 273 274 274 274 275 275 275 275 275 275 275 275 276
265 265 265 265 265 265 265 265 264 264 264 264 264 265 265 265 265 264 264 264 264 264 264 264 265 265 265 265 265 265 265 266 266 266 266 266 266 266 266 267 267 267 267 268 268 268 268 269 269 269 269 269 269 268 268 268 268 268 268 268 268 268 269 270 270 270 271 271 272 272 273 273 273 273 273 273 274 274 274 274 274 274 274 274 275
265 265 265 265 265 265 265 264 264 264 264 264 264 264 264 264 264 264 264 264 264 264 264 264 264 264 264 264 265 265 265 265 265 265 265 266 266 266 266 266 266 267 267 267 267 268 268 268 268 268 269 268 268 268 268 268 268 268 268 268 268 269 269 270 270 270 271 271 271 272 272 273 273 273 272 272 273 273 273 273 273 273 274 274 274
265 265 265 264 264 264 264 264 264 264 264 263 263 263 264 264 264 264 264 264 264 264 264 264 264 264 264 264 264 264 264 265 265 265 265 265 265 265 266 266 266 266 266 267 267 267 267 268 268 268 268 268 268 268 268 268 268 268 268 268 269 269 269 269 270 270 270 271 271 271 272 272 272 272 272 272 272 272 272 272 273 273 273 274 274
264 264 264 264 264 264 264 264 264 263 263 263 263 263 263 263 263 263 263 263 263 263 263 263 263 264 264 264 264 264 264 264 264 264 265 265 265 265 265 265 266 266 266 266 266 267 267 267 267 268 268 268 268 268 268 268 268 268 268 268 269 269 269 270 270 270 270 270 271 271 271 272 272 272 272 272 272 272 272 272 272 273 273 274 274
264 264 264 264 264 264 264 263 263 263 263 263 263 263 263 263 263 263 263 263 263 263 263 263 264 264 264 264 264 264 264 264 264 264 264 264 265 265 265 265 265 265 266 266 266 266 267 267 267 267 268 268 268 268 268 268 268 268 268 268 269 269 270 270 270 270 270 270 271 271 271 272 272 272 271 271 271 271 272 272 272 273 273 273 274
264 263 263 263 263 263 263 263 263 263 263 263 263 263 263 263 263 263 263 263 263 263 263 263 263 264 264 264 263 263 263 263 264 264 264 264 264 264 265 265 265 265 265 266 266 266 266 266 267 267 267 267 268 268 268 268 268 268 268 268 269 269 270 270 270 270 270 270 270 271 271 271 271 271 271 271 271 271 272 272 272 273 273 273 274
Wind_Speed
36 35 34 34 34 34 34 35 36 36 35 34 33 32 31 30 29 29 28 27 26 25 24 22 21 21 20 19 19 19 19 19 19 20 21 22 23 24 24 25 25 26 26 25 25 25 26 26 26 26 25 24 24 23 23 23 23 24 25 25 26 27 26 28 32 38 38 34 33 33 30 29 29 27 29 34 35 33 33 34 33 31 30 29 28
40 39 38 37 36 35 35 36 36 37 37 37 37 36 34 33 32 32 31 30 29 29 28 27 26 25 24 23 22 21 21 20 20 20 21 22 23 24 24 25 26 27 27 27 27 26 26 26 26 26 25 25 24 24 24 24 24 24 24 24 26 26 26 27 30 33 36 33 31 33 30 27 27 27 27 32 34 33 34 38 37 34 32 31 31
43 42 41 40 39 38 37 37 37 37 37 37 38 38 37 37 36 35 34 33 33 32 32 31 30 30 29 28 27 26 24 23 23 23 23 23 24 25 25 26 26 27 27 27 27 27 27 27 27 27 27 27 27 27 27 27 25 25 26 25 25 26 25 26 28 31 35 36 33 32 32 31 29 28 26 28 31 35 38 38 37 37 37 36 34
44 44 44 43 42 41 40 39 38 38 37 37 37 37 38 38 38 38 37 36 35 35 35 34 33 33 33 32 32 31 29 28 26 26 26 26 27 27 27 27 27 27 27 27 27 27 28 28 28 28 28 29 30 30 30 31 29 29 30 30 29 29 28 26 27 29 33 37 37 34 33 34 32 28 26 28 32 36 38 37 36 38 39 37 36
45 44 44 44 44 43 42 41 40 39 38 38 37 37 37 37 38 38 39 39 38 37 36 36 36 35 35 35 34 34 33 32 31 30 29 29 29 29 29 29 29 29 29 29 29 29 29 29 29 29 30 31 31 31 32 32 32 32 33 33 33 33 32 32 31 31 31 34 38 37 33 33 34 33 31 31 33 34 34 36 37 37 38 37 37
45 44 44 44 44 43 43 42 41 41 40 39 38 38 37 37 37 37 38 39 39 39 38 37 37 37 36 36 36 36 36 35 35 34 33 33 32 32 32 32 32 31 31 31 31 30 31 31 31 31 32 32 32 32 33 33 33 34 34 35 35 34 35 36 35 33 32 33 36 38 36 34 36 37 34 30 30 33 34 34 35 37 37 37 37
44 44 44 44 43 43 43 42 41 41 41 40 40 39 38 38 38 37 38 38 39 40 40 39 38 38 38 37 36 36 37 37 37 36 36 36 35 35 34 34 34 33 33 33 33 32 32 32 33 33 33 34 34 34 34 34 35 35 36 36 36 36 36 36 36 34 33 33 35 38 39 38 37 37 35 31 31 33 33 31 34 36 35 35 37
43 43 43 43 43 44 43 43 42 41 41 41 41 40 40 39 39 39 39 39 39 40 40 40 40 40 39 39 38 37 37 37 37 37 38 38 38 37 37 36 36 36 35 35 34 34 34 34 34 35 35 36 36 36 36 36 37 37 37 36 36 37 37 37 36 34 32 32 34 36 38 38 38 38 36 33 32 32 31 30 33 35 34 34 36
44 44 43 43 43 43 43 44 43 43 42 42 42 41 41 41 41 40 40 40 40 41 41 41 41 41 41 40 40 39 38 37 37 37 37 38 39 39 39 39 38 38 37 37 36 36 36 36 36 36 36 36 36 37 37 37 37 38 38 37 36 37 37 37 37 36 34 33 34 37 37 38 41 41 37 35 33 30 29 29 30 32 33 33 35
44 45 45 44 44 44 43 43 44 44 44 44 43 43 43 42 42 42 41 41 41 42 42 42 42 42 41 42 41 41 40 39 38 37 36 37 38 39 40 40 40 39 39 38 37 37 37 37 37 37 37 37 37 36 36 36 36 37 38 38 37 37 38 38 38 37 37 36 37 38 38 39 43 41 39 40 37 30 29 30 30 31 33 34 38
45 45 45 45 44 44 44 44 44 43 43 43 44 44 44 44 44 44 43 42 42 42 42 42 43 43 42 42 42 42 41 40 39 38 37 37 37 38 39 40 40 40 40 40 39 38 38 38 38 38 38 38 38 37 37 36 36 36 36 37 37 37 38 38 38 38 37 37 38 39 39 41 43 42 41 42 38 32 30 30 29 31 32 33 37
45 45 45 45 45 44 45 44 44 44 43 43 43 43 44 44 44 44 44 44 43 42 42 42 42 43 43 43 43 42 42 41 39 39 38 38 38 38 39 39 40 40 41 41 41 40 39 39 39 39 39 38 38 38 38 38 38 37 37 36 37 37 37 38 38 38 38 38 39 40 40 42 42 42 42 41 36 34 33 31 29 30 32 32 34
46 46 46 47 47 46 46 45 45 44 43 43 43 42 42 43 43 44 44 44 44 43 42 42 41 41 42 43 43 43 42 41 39 38 38 38 37 38 38 39 39 40 40 41 41 41 41 40 39 39 39 39 39 39 39 39 39 38 38 38 38 38 37 37 38 38 38 38 39 41 42 42 42 42 43 41 38 38 38 37 34 32 32 33 34
45 46 47 48 47 47 47 46 45 44 43 43 42 42 41 41 42 42 43 43 43 42 42 41 40 40 40 41 42 43 43 42 40 38 36 36 35 36 37 38 39 40 40 40 41 41 41 40 40 39 39 38 38 38 38 38 38 39 39 39 39 39 39 39 39 38 38 38 38 41 42 42 42 43 44 42 39 38 39 38 37 35 35 35 36
44 45 46 46 46 46 45 44 44 43 42 42 42 41 40 40 40 40 41 42 41 41 40 40 40 39 38 37 38 41 42 41 40 38 36 34 33 33 34 36 38 39 40 40 40 40 40 40 40 39 39 38 38 37 37 37 37 38 39 39 39 39 39 39 39 39 39 37 37 39 41 41 41 41 43 42 39 37 37 38 40 41 41 42 43
44 44 44 44 44 43 42 42 42 42 41 41 40 40 39 38 38 38 39 39 39 39 39 39 39 38 36 35 35 37 40 39 37 37 35 33 31 31 32 34 35 37 38 38 38 38 38 38 38 39 38 38 37 36 36 36 36 37 38 38 38 38 38 38 38 38 38 37 36 38 40 41 40 40 41 41 39 38 36 37 41 42 40 41 46
42 41 40 40 40 40 39 39 40 40 40 40 39 39 38 37 37 37 37 38 39 39 38 38 38 37 35 35 34 34 36 37 36 35 34 30 28 29 30 32 34 35 35 36 36 36 36 36 36 37 37 36 35 34 33 34 34 35 36 37 38 38 38 37 37 37 36 35 36 37 39 39 40 40 39 39 39 36 32 34 40 39 34 36 43
38 37 37 37 37 36 36 37 37 38 38 38 38 38 37 37 36 35 35 37 38 38 38 38 38 37 36 36 35 34 35 36 35 34 31 27 24 25 27 29 32 33 33 33 34 34 35 35 34 34 34 33 32 32 31 31 32 33 34 35 37 39 38 36 35 36 35 34 35 37 37 38 38 38 38 38 37 33 30 33 37 35 32 34 40
35 34 35 34 34 34 34 35 36 36 36 37 36 36 36 36 35 35 34 35 36 37 37 36 37 37 36 36 35 35 34 33 33 33 29 25 22 23 25 27 30 31 31 31 32 33 33 33 33 32 31 30 29 29 29 28 29 31 31 32 35 38 37 33 33 34 34 35 35 35 36 36 36 36 37 37 36 33 30 31 32 31 31 33 35
33 33 34 34 33 34 34 34 34 34 34 35 34 34 34 34 34 35 35 35 35 35 35 35 35 35 35 33 33 32 31 30 31 30 27 23 22 22 23 25 27 28 28 29 31 32 31 31 30 30 28 26 26 27 27 26 26 27 28 29 33 35 33 30 31 33 33 34 34 34 34 34 33 34 35 35 34 32 30 28 28 27 28 30 32
33 34 34 34 34 34 33 33 34 33 33 33 33 33 32 32 33 34 34 34 34 34 34 33 34 33 31 28 26 26 26 26 28 28 25 23 23 22 22 25 25 27 29 30 31 32 31 29 28 27 26 25 24 25 26 25 24 25 27 29 30 30 29 28 29 30 30 32 32 31 32 32 31 32 32 32 32 31 28 26 26 25 25 27 30
33 33 33 33 33 33 33 33 33 33 33 33 33 33 31 31 31 32 32 33 33 33 33 32 32 31 28 25 24 25 24 23 25 25 25 25 25 24 25 27 27 28 30 32 32 33 32 31 29 27 25 24 25 26 26 25 24 25 26 27 27 26 27 28 28 28 28 29 29 29 30 29 29 30 30 30 30 28 26 25 25 25 26 28 30
32 32 32 32 32 32 33 33 32 33 33 33 33 33 32 31 30 30 30 31 31 32 32 31 30 29 26 25 25 23 21 20 23 26 29 31 31 29 28 27 27 28 30 32 32 33 32 31 29 26 25 25 27 27 26 25 25 25 25 25 25 26 26 26 27 27 27 27 28 29 28 27 27 28 28 27 27 27 26 26 27 28 29 31 32
33 32 32 32 32 32 32 32 32 32 32 32 32 32 31 31 30 29 29 29 29 30 30 29 28 26 24 24 23 21 22 25 27 30 33 34 33 31 29 28 29 29 30 31 31 31 30 28 27 27 27 27 27 26 26 25 25 25 24 25 25 25 25 25 25 25 26 26 26 27 27 25 25 25 25 25 26 27 27 28 28 28 29 31 33
34 33 33 33 33 33 33 33 32 31 31 31 31 31 31 30 30 29 28 27 27 27 27 27 26 23 23 23 22 23 29 32 33 33 34 34 33 31 30 31 32 33 31 30 29 28 27 27 27 27 27 26 26 26 25 25 24 24 24 24 24 24 24 24 24 24 24 25 25 25 25 24 23 23 23 23 24 25 26 26 26 26 27 29 31
35 34 35 35 34 34 35 34 34 33 32 31 31 30 30 30 29 29 28 27 26 26 26 26 25 23 23 23 23 28 34 36 36 36 35 34 33 33 33 33 35 35 34 31 29 28 28 28 28 27 26 25 25 25 25 25 24 23 22 22 23 22 22 22 22 22 23 23 23 24 24 23 23 22 22 22 23 23 23 24 24 24 24 25 27
36 35 35 36 36 35 35 35 35 34 33 32 31 30 29 28 28 28 27 26 26 25 25 25 24 23 24 26 29 33 37 37 36 36 34 34 34 35 35 36 37 38 37 34 30 29 29 29 28 27 26 25 24 24 25 24 24 23 22 21 21 21 21 20 20 20 21 21 22 22 22 22 21 21 20 20 20 20 20 21 22 22 21 21 24
35 35 35 35 36 35 35 34 34 34 33 32 31 30 29 27 27 26 24 23 24 25 25 24 23 23 26 29 32 35 36 35 33 32 32 32 33 34 35 37 38 38 37 33 30 30 30 29 28 27 26 25 25 24 23 22 20 19 19 20 19 19 19 18 18 17 18 19 20 20 20 19 19 19 18 19 18 17 17 17 18 19 18 18 19
35 35 35 35 35 35 35 34 33 33 33 32 31 30 28 26 26 26 23 20 19 21 23 22 22 24 26 27 29 33 35 33 30 28 28 29 30 32 34 36 37 36 34 31 30 31 31 28 27 26 25 25 24 23 22 20 17 15 14 14 14 14 15 15 15 15 15 16 16 16 17 17 17 16 16 17 16 15 15 15 15 16 16 16 16
35 35 35 35 35 35 34 34 33 32 32 32 32 32 30 26 24 24 23 21 19 18 18 19 19 20 22 25 28 29 30 29 27 26 27 28 29 31 33 34 34 33 32 31 30 29 29 28 26 25 24 23 23 22 21 19 17 15 13 11 10 10 11 12 12 12 13 13 13 14 15 15 15 15 15 15 15 14 13 13 14 15 15 16 15
35 35 35 35 35 34 34 33 33 32 32 31 32 33 33 31 26 22 22 22 21 19 17 17 17 18 21 24 27 27 25 25 25 25 26 28 29 31 32 32 31 31 31 30 28 26 26 27 26 24 23 22 21 20 19 17 17 16 15 13 10 10 10 10 9 10 11 11 12 13 14 15 15 15 14 14 15 13 12 12 13 14 15 15 15
34 35 35 34 34 34 33 32 32 32 32 31 31 31 33 34 32 28 23 21 21 21 19 18 17 18 19 21 24 25 25 24 24 24 26 27 29 30 30 29 28 28 28 27 25 24 25 25 25 24 24 23 21 19 18 17 17 16 16 15 13 11 10 10 10 10 11 12 13 13 14 15 15 14 14 14 15 14 12 12 13 14 14 15 15
33 34 34 34 34 34 33 32 32 31 31 31 31 31 31 32 34 34 30 26 22 20 19 19 20 19 19 19 20 22 23 23 23 24 24 25 26 27 26 25 26 26 26 24 23 23 23 23 23 23 22 22 21 20 19 18 18 17 16 16 15 14 13 12 11 11 11 12 13 13 14 15 15 15 15 14 15 14 13 13 12 13 13 13 14
32 33 32 32 33 33 32 32 31 31 30 30 30 30 30 30 32 34 34 33 29 24 20 20 21 22 22 21 20 21 22 22 22 22 22 23 24 24 24 23 22 22 22 21 21 21 21 21 20 20 20 20 20 20 20 19 18 17 17 16 16 16 16 15 14 13 13 13 13 13 14 15 16 16 16 16 15 14 14 13 13 12 12 12 12
32 32 31 31 32 33 32 31 30 30 30 30 30 30 30 30 30 31 32 33 32 30 26 23 21 22 23 23 22 21 21 21 21 21 22 22 23 23 23 22 21 20 19 19 18 18 19 19 19 18 18 18 18 18 19 18 18 17 17 16 16 16 17 17 17 16 15 15 15 15 15 15 16 16 17 17 16 15 14 13 13 13 12 11 11
31 31 31 31 31 32 32 31 30 29 29 29 29 29 29 29 30 30 30 30 31 31 29 27 24 23 22 23 23 22 21 21 21 20 21 21 22 22 22 22 22 21 20 18 17 17 17 18 18 18 17 17 16 16 16 16 16 16 15 15 16 16 16 17 17 17 17 17 17 17 16 17 17 17 17 17 16 15 14 13 13 13 12 12 11
30 31 31 31 31 32 32 31 30 29 29 29 29 29 29 29 29 29 30 30 30 30 30 29 27 25 24 23 23 23 23 21 20 19 19 20 21 21 22 22 22 21 20 19 18 17 16 16 17 17 17 16 16 15 15 15 15 15 14 14 14 14 15 15 15 16 16 16 17 17 17 16 16 16 16 16 16 15 15 14 13 12 11 11 11
29 29 29 29 30 31 31 31 31 30 29 29 28 28 29 29 28 29 29 30 30 30 30 29 28 28 27 25 24 25 24 23 22 21 20 20 20 21 21 21 21 21 20 19 18 17 17 16 16 16 16 16 15 15 15 14 14 14 14 14 13 13 13 13 13 13 14 14 14 14 14 14 13 13 13 13 13 13 13 13 13 12 11 11 11
30 29 28 28 29 29 30 30 30 30 30 30 29 28 28 28 28 28 29 29 29 30 30 30 28 28 28 28 27 26 25 25 24 24 22 21 20 21 21 21 21 20 20 19 18 17 17 16 16 15 15 15 15 14 14 14 13 13 13 14 13 13 12 12 12 12 12 12 12 11 11 11 10 10 9 10 10 10 11 11 11 11 11 11 11
30 30 29 28 28 29 29 29 30 30 30 30 30 29 29 28 28 28 28 29 29 29 29 29 29 28 27 27 27 26 26 25 25 24 23 22 20 20 20 21 21 20 20 20 19 18 17 16 16 16 15 15 15 14 14 13 13 13 13 13 13 12 12 12 12 12 12 12 11 11 11 10 9 8 8 8 8 9 8 8 8 9 9 9 9
31 31 30 30 29 29 29 29 29 29 29 29 29 29 29 29 28 28 28 29 29 29 29 29 28 28 27 26 25 25 25 25 24 23 23 22 21 20 19 20 20 20 20 20 20 19 17 16 16 15 15 15 15 14 13 13 12 12 12 12 12 12 12 11 11 11 11 11 11 11 11 10 9 8 7 7 7 7 7 7 7 7 7 7 7
31 32 31 30 29 29 29 29 29 29 29 29 28 28 28 28 28 28 28 29 28 29 29 29 28 28 27 26 25 25 24 24 23 22 22 21 21 20 19 19 19 19 19 20 20 20 19 17 16 15 15 15 14 14 14 13 12 12 13 13 12 13 13 12 12 12 11 10 10 10 10 9 9 8 7 7 6 6 6 6 7 7 6 6 6
32 32 32 30 29 28 28 28 28 28 28 28 28 27 27 27 27 27 28 28 28 28 28 29 28 28 27 26 26 25 24 24 23 22 22 21 21 20 19 19 18 18 18 18 19 19 18 17 16 16 15 15 15 14 14 14 13 13 13 14 14 14 14 14 13 12 11 10 10 9 9 8 8 7 7 6 6 5 5 5 5 5 5 5 4
33 32 32 31 30 28 27 27 27 27 27 27 27 26 26 26 26 26 26 27 27 27 27 28 28 28 27 26 26 25 25 25 24 23 22 22 21 21 20 19 19 18 17 17 17 17 18 17 16 15 14 14 14 14 13 13 14 14 14 15 15 14 14 15 15 14 13 11 10 10 9 8 7 6 6 6 6 5 4 4 4 4 4 3 3
33 33 32 32 31 29 28 27 26 26 27 26 26 26 25 25 25 25 25 25 25 26 26 26 27 27 27 26 26 25 25 25 24 24 23 22 22 21 21 20 20 19 18 17 17 16 17 17 16 15 14 13 13 13 13 13 13 14 14 15 15 14 14 14 14 14 13 12 11 11 10 9 7 6 6 5 5 4 4 4 3 3 3 3 2
33 33 32 32 31 30 29 27 27 27 26 26 26 25 25 24 24 24 23 23 24 24 25 25 25 26 26 26 25 25 25 24 24 24 23 22 22 22 22 21 21 19 19 18 17 16 16 16 16 15 15 14 13 13 13 13 14 14 14 14 14 13 13 13 13 13 12 11 11 11 10 9 8 7 6 5 5 4 3 3 3 2 2 3 3
33 32 32 31 30 30 28 27 27 27 27 26 25 25 24 23 23 22 22 22 22 22 23 23 23 24 24 24 24 24 24 24 24 23 23 22 22 22 22 21 21 20 19 18 17 16 16 15 15 15 15 14 13 13 13 13 14 14 14 14 13 13 13 13 13 12 11 11 11 11 10 9 8 7 6 6 5 4 4 3 3 2 2 2 3
32 31 31 30 30 29 28 27 27 27 27 26 25 24 23 22 22 21 21 21 21 21 22 22 22 23 23 23 23 23 23 23 23 22 22 22 22 22 22 21 21 20 19 18 17 17 16 15 15 15 15 14 14 13 13 13 13 13 14 13 13 13 13 13 12 11 10 10 11 11 10 9 8 7 6 5 5 5 4 4 3 3 3 3 3
31 31 30 30 29 29 28 27 27 27 26 26 25 24 22 22 21 20 20 20 20 21 22 22 22 22 22 22 22 22 22 22 22 22 22 21 21 21 21 21 20 20 19 18 17 17 16 16 16 15 15 15 14 13 13 13 14 13 13 13 13 13 12 12 11 10 10 10 10 10 10 9 8 7 6 5 5 5 4 4 3 3 3 3 4
30 30 30 30 29 28 27 27 26 26 26 25 25 24 23 22 21 20 21 21 21 22 22 23 23 23 23 23 22 22 22 22 22 22 22 21 21 21 21 20 20 19 19 18 17 17 16 16 16 16 16 15 15 14 14 14 14 14 14 13 13 13 12 11 11 10 9 9 9 9 9 9 8 7 6 5 5 5 4 4 4 3 2 2 2
30 29 29 29 28 28 27 27 26 26 25 25 24 24 23 23 22 22 22 23 23 24 24 24 25 25 25 24 24 23 23 22 22 22 21 21 21 21 21 20 19 19 18 18 17 16 16 16 15 15 15 15 15 15 14 14 14 14 14 14 14 13 12 11 11 10 9 9 9 8 8 8 7 7 6 6 5 5 5 5 4 4 3 1 1
Wind_Direction
354 354 353 351 349 348 346 344 343 341 341 340 339 337 336 335 332 329 325 322 319 315 312 308 303 298 293 288 285 282 282 282 283 284 284 285 284 283 280 278 276 277 278 279 281 282 282 282 282 281 279 275 274 273 270 269 267 266 266 267 269 268 267 267 270 275 278 278 278 279 283 287 288 287 288 292 296 297 296 296 294 291 290 291 292
350 349 347 346 345 344 343 341 340 338 337 336 335 334 333 333 332 330 327 324 321 318 315 312 309 305 301 296 290 285 281 278 276 276 276 277 278 278 278 278 279 279 280 282 283 283 283 283 284 283 282 279 278 277 276 275 272 269 268 267 267 267 266 267 269 274 279 280 280 283 285 283 281 282 284 288 291 291 292 295 295 292 292 291 290
346 344 343 342 341 339 338 337 336 335 334 332 332 331 331 330 329 328 327 325 324 321 318 315 312 309 307 303 299 293 287 282 278 276 274 273 272 272 272 274 276 278 280 282 284 285 285 286 287 288 287 287 286 285 283 282 278 275 275 272 271 271 270 268 269 271 276 279 279 279 280 279 278 280 282 282 284 286 289 293 294 295 296 294 290
343 342 340 339 337 336 334 333 332 331 330 329 328 328 327 326 326 325 324 323 322 322 320 318 314 311 308 306 303 299 295 289 283 278 276 274 272 272 271 271 272 275 277 279 281 282 282 283 285 286 286 286 286 287 287 286 284 282 281 280 278 276 275 271 270 271 274 279 280 278 279 281 280 277 276 275 279 283 286 290 292 292 294 294 293
341 340 338 337 335 334 332 331 329 328 327 326 325 324 323 322 322 321 321 320 319 318 318 318 316 314 311 307 304 302 299 295 290 284 279 276 273 272 271 271 272 272 274 275 277 278 279 280 281 282 282 282 283 284 285 285 285 284 283 283 281 280 278 276 274 273 272 275 280 282 282 282 280 279 278 278 281 282 284 288 291 291 292 294 294
340 338 337 335 334 333 331 330 329 327 325 324 322 320 319 318 317 316 316 316 315 315 314 314 314 313 312 310 307 303 300 298 295 291 286 281 276 273 271 270 269 270 270 271 272 274 275 276 278 278 278 279 279 280 281 282 282 282 281 282 281 280 280 279 278 276 274 273 277 280 280 278 280 283 282 281 282 282 283 288 290 291 293 294 294
338 338 337 335 333 331 330 328 327 326 325 323 321 319 317 315 313 313 312 311 311 311 311 310 310 310 310 309 308 305 302 299 297 295 292 288 283 279 275 271 269 268 268 268 269 269 270 271 272 273 274 275 276 276 277 278 278 278 279 279 279 279 279 279 279 277 276 276 276 278 280 280 281 283 284 284 283 282 283 284 286 289 290 291 292
336 336 335 334 333 331 329 328 326 324 323 322 321 319 317 314 312 310 309 308 307 307 307 306 306 306 306 306 305 305 302 300 298 296 294 292 289 285 282 278 274 270 268 268 268 268 268 268 268 269 270 271 272 273 273 274 275 275 275 276 276 277 277 277 277 276 275 275 276 277 279 281 282 283 284 285 283 282 283 283 285 288 290 291 292
333 333 332 332 331 329 328 327 325 324 323 321 320 319 318 316 314 311 309 307 306 305 304 303 302 302 302 302 301 301 300 299 298 296 294 292 290 289 286 284 281 278 274 271 270 269 270 270 270 270 270 269 270 271 271 272 272 272 273 273 273 274 274 274 274 274 274 272 274 276 277 279 282 283 283 282 281 282 285 285 287 291 292 291 290
330 329 329 329 328 327 326 325 323 323 322 322 321 320 319 317 316 314 312 309 307 305 304 302 301 300 299 299 298 298 297 297 296 295 294 292 290 289 288 286 285 284 281 278 275 273 273 273 273 273 273 273 273 273 273 272 272 272 272 272 271 271 272 272 272 273 272 271 272 275 274 276 280 282 281 283 284 283 283 282 283 285 286 285 286
328 327 327 326 325 325 323 322 321 320 320 319 319 319 319 318 317 316 314 312 309 307 305 304 303 301 299 297 297 296 295 295 294 294 293 292 290 288 287 286 286 285 284 283 280 278 277 276 276 276 276 276 276 275 275 274 273 272 271 271 270 270 269 270 270 270 269 269 271 273 271 273 279 281 282 285 286 283 282 282 282 283 284 285 286
327 326 326 325 325 324 322 321 320 319 317 317 316 317 317 317 318 318 317 315 313 310 308 306 305 303 302 299 297 295 294 293 293 293 292 292 291 289 286 285 284 284 283 283 282 281 280 279 279 279 279 278 278 278 276 275 274 272 271 269 268 267 267 267 268 268 268 267 269 271 271 273 277 280 282 283 282 280 280 280 280 281 282 281 280
325 325 325 324 324 324 323 321 319 318 318 316 315 315 314 315 316 318 318 318 317 314 312 310 307 305 304 302 299 297 294 293 293 293 291 291 291 289 287 285 283 282 282 281 281 281 281 280 280 279 279 279 280 279 278 277 276 273 271 269 267 266 266 265 265 265 265 266 267 270 273 274 275 278 282 281 277 278 279 279 279 280 279 277 277
324 323 323 323 324 324 323 322 320 319 319 318 317 316 315 315 315 316 317 317 317 317 315 313 311 309 307 305 303 300 298 297 296 294 292 291 290 289 287 285 283 281 281 280 280 280 280 280 280 279 279 279 279 280 279 278 277 275 273 271 269 268 267 266 266 265 265 264 265 268 273 273 273 277 280 279 276 277 278 278 279 278 275 274 273
323 322 322 322 323 323 323 322 321 321 320 319 319 318 318 318 317 317 317 317 317 317 316 315 314 312 310 308 306 303 302 302 301 298 296 293 291 289 287 285 283 282 281 280 279 279 278 279 279 278 278 278 278 279 279 278 277 275 274 272 271 270 269 268 268 268 268 268 267 269 272 272 273 275 276 276 276 276 275 275 276 275 273 273 272
322 322 322 322 323 324 324 323 322 322 322 320 320 319 319 319 319 320 319 318 318 317 316 315 313 312 309 308 307 306 305 306 305 303 301 299 296 293 290 288 285 283 282 282 281 279 279 278 279 278 278 278 279 279 279 278 277 276 275 274 273 271 270 270 270 270 271 272 272 272 272 272 273 274 274 274 275 277 278 277 277 276 276 276 276
322 322 322 323 324 325 325 324 323 323 322 322 321 321 321 320 320 321 320 319 318 317 316 314 312 311 308 306 305 305 305 307 308 307 306 305 302 299 296 293 290 287 286 285 284 283 281 279 278 278 278 279 279 280 280 279 278 278 277 276 275 274 273 273 273 273 274 275 275 274 273 273 274 275 276 276 277 279 279 277 277 278 277 278 278
322 324 325 325 326 326 326 325 324 324 323 323 322 322 321 320 320 320 319 317 315 315 314 313 311 310 308 306 305 304 305 306 308 310 310 308 306 305 302 299 295 292 291 290 288 286 284 283 281 280 280 280 280 280 280 279 279 278 278 279 278 276 276 277 278 277 277 277 276 275 276 277 277 278 279 279 279 279 277 276 279 279 276 274 276
326 327 327 327 327 327 327 326 325 325 325 324 323 322 321 320 320 320 318 316 314 313 313 311 310 309 307 305 305 305 304 304 306 310 312 308 307 308 307 304 300 298 297 294 290 287 286 286 286 285 284 283 282 281 280 280 280 279 280 280 279 278 280 282 282 280 279 278 278 277 277 278 278 279 279 279 279 279 276 276 278 276 272 272 274
328 328 328 329 329 328 327 326 326 326 325 324 323 323 322 321 321 320 318 316 314 313 312 311 310 308 307 307 306 305 302 299 302 309 310 307 306 310 310 308 307 306 304 300 295 292 291 290 289 289 289 286 282 280 279 278 278 279 278 278 279 280 283 284 282 280 280 279 279 280 279 280 280 281 281 281 282 284 282 280 278 273 269 269 270
328 328 328 329 328 326 326 326 325 325 325 325 323 322 323 323 322 321 320 318 316 314 313 312 311 310 311 311 308 303 300 299 302 306 307 306 308 311 308 307 308 308 306 303 300 298 297 296 294 293 291 288 282 278 276 275 275 275 275 275 278 281 283 282 280 280 280 280 281 282 282 283 284 285 286 287 288 290 289 285 282 277 269 265 267
326 326 327 327 326 326 325 325 325 325 325 325 324 323 324 325 323 322 321 320 318 316 315 314 314 313 311 307 303 302 303 303 301 300 301 304 307 309 306 304 305 306 305 304 304 302 301 299 297 295 293 289 283 278 276 275 274 272 272 274 277 278 278 279 280 281 282 282 283 284 285 287 289 290 291 292 293 295 293 288 284 280 274 269 268
325 326 326 326 326 326 325 325 326 325 324 325 324 323 324 325 324 325 324 322 321 320 318 317 317 315 311 307 307 309 305 298 294 294 298 303 307 308 308 306 306 307 308 308 307 306 304 301 299 298 295 290 284 280 278 277 274 273 273 273 273 274 275 277 279 281 283 284 284 285 288 290 292 292 294 295 296 295 293 290 288 285 282 279 276
326 327 327 327 327 326 325 325 326 325 325 325 324 324 325 325 325 327 327 326 324 322 320 321 321 318 315 314 314 310 300 296 297 300 303 308 311 312 311 309 308 309 310 310 309 308 307 304 302 300 296 291 288 285 282 279 276 275 274 272 272 273 274 276 277 279 280 282 283 285 287 289 291 293 294 296 295 294 294 294 293 290 288 285 283
327 328 328 328 328 327 326 326 326 326 326 325 324 325 327 327 327 329 329 329 327 324 323 324 323 321 319 316 314 311 308 308 310 311 312 315 315 314 313 312 311 311 312 312 311 310 308 305 302 299 295 293 292 288 285 282 279 276 274 272 272 272 272 272 272 274 276 278 280 282 284 286 289 291 292 293 293 294 296 297 297 295 294 291 289
327 328 329 328 328 328 327 327 327 327 326 326 325 326 328 330 330 330 331 331 329 327 326 325 323 323 322 317 313 313 315 316 316 315 317 317 315 314 315 314 312 312 313 315 315 312 310 308 307 304 300 297 294 292 290 288 284 280 276 272 269 267 265 265 267 268 271 275 277 279 282 286 288 290 291 293 294 297 301 301 301 302 301 299 295
326 327 328 327 327 327 327 327 327 326 326 326 325 326 328 330 329 330 332 332 330 329 328 325 323 326 324 316 312 313 314 315 316 316 317 317 316 315 315 313 312 312 314 317 317 313 310 310 310 309 305 302 299 297 294 291 287 281 275 268 264 261 260 261 263 266 268 271 275 278 282 285 288 290 292 295 297 301 304 304 305 306 307 305 300
324 325 326 325 325 326 327 327 326 325 325 324 324 325 327 328 328 329 332 333 332 330 327 324 324 326 322 314 311 312 313 313 316 317 318 316 315 314 311 310 311 313 315 317 314 309 308 311 311 311 309 307 306 304 300 295 290 283 275 269 263 260 259 260 261 264 267 270 274 279 282 285 287 290 294 297 300 305 307 307 308 310 312 311 305
322 323 324 324 324 325 326 326 326 325 324 324 323 322 324 326 326 327 330 333 332 327 323 321 322 325 321 314 311 311 311 312 314 316 314 311 309 308 307 308 311 313 313 311 309 308 309 311 311 311 311 310 311 310 307 303 299 293 286 281 275 268 266 267 268 267 269 272 276 282 286 288 290 293 297 299 302 306 310 312 313 315 319 318 314
320 321 322 322 323 324 325 325 326 325 324 324 322 321 320 322 323 325 327 330 330 325 319 314 312 314 311 307 306 307 309 311 312 311 309 307 306 306 307 308 310 310 307 306 307 309 309 309 309 309 308 308 310 310 309 307 305 303 302 299 296 290 285 284 284 282 281 283 286 290 294 296 298 300 302 304 305 307 313 318 320 322 323 322 319
319 320 321 321 322 323 324 325 325 325 325 324 322 321 320 320 321 322 324 326 326 325 320 311 304 301 300 301 303 306 308 310 310 310 310 309 309 309 309 310 310 307 305 307 309 309 306 306 307 306 304 304 305 305 305 305 305 306 307 307 308 308 304 301 302 300 297 297 299 301 303 304 305 306 307 309 309 311 316 320 321 321 320 319 319
319 319 320 320 321 322 323 324 325 324 324 324 323 322 321 321 322 322 321 322 323 324 323 318 312 308 306 306 308 311 313 313 312 311 311 311 310 311 312 313 312 310 309 311 311 307 304 303 303 302 302 302 301 299 299 299 299 302 305 306 307 308 308 308 309 308 307 307 305 305 306 308 310 313 315 316 316 316 317 319 319 318 317 318 319
318 318 319 320 320 321 322 324 324 324 324 324 323 323 322 321 322 322 321 321 321 321 321 321 320 318 315 313 313 315 316 317 315 314 313 313 313 313 316 319 320 317 317 316 312 307 303 301 300 301 301 300 299 298 297 297 296 297 298 300 301 301 301 301 300 299 301 302 303 304 307 311 315 318 320 321 320 319 319 319 317 314 313 315 318
317 317 318 319 319 319 321 322 323 323 323 322 322 322 321 321 320 320 321 322 322 321 320 320 321 322 320 319 319 320 321 321 320 319 319 319 318 318 320 322 321 318 317 317 314 309 307 305 304 303 301 300 300 300 299 298 298 297 295 294 293 292 293 293 292 292 292 292 294 297 301 305 310 313 314 316 317 317 318 318 315 311 309 310 312
317 317 318 319 319 318 319 321 321 321 321 321 321 320 319 319 318 318 319 321 322 322 321 320 320 321 321 320 321 323 326 327 326 325 326 326 325 324 322 322 321 319 320 323 321 317 315 314 314 313 310 307 305 305 304 305 304 303 301 298 293 291 290 290 290 291 292 291 290 291 292 294 296 299 301 304 305 305 307 308 309 309 306 304 303
319 319 320 320 319 318 318 319 319 319 319 318 318 317 316 316 316 316 316 317 319 320 320 320 320 319 319 319 320 320 324 328 328 329 330 330 329 328 326 325 326 328 331 332 330 327 323 321 321 321 321 319 316 313 312 312 311 310 309 307 303 300 296 294 293 293 294 295 294 293 291 290 289 289 290 291 291 290 291 294 297 300 300 298 296
321 321 321 321 319 317 317 317 318 318 317 316 316 315 315 315 315 315 315 316 316 317 318 319 320 319 318 319 319 318 320 324 327 329 331 331 332 332 332 331 331 332 334 336 335 333 330 326 325 325 325 325 325 322 320 318 316 315 314 312 310 308 305 302 301 299 298 298 297 296 295 292 290 288 287 287 285 284 282 283 284 286 288 289 287
321 321 322 321 319 317 317 317 317 317 316 316 316 315 314 314 315 314 314 314 315 315 316 318 319 320 320 320 320 318 318 321 325 328 331 333 334 335 335 334 333 332 334 336 337 336 333 331 329 328 327 328 328 327 325 323 321 319 317 315 314 313 311 309 307 305 302 300 298 297 296 294 292 291 290 288 288 287 284 281 278 275 276 277 278
320 321 322 321 320 318 317 317 317 316 316 316 316 315 314 314 314 314 314 313 313 314 315 316 317 319 320 321 321 320 320 322 325 329 331 333 335 336 335 334 332 332 333 335 336 337 336 334 333 332 331 331 330 329 328 326 325 323 321 319 317 317 317 315 314 312 310 308 305 303 300 297 297 298 298 297 297 294 290 286 281 276 274 275 275
321 322 323 322 321 319 318 317 317 316 316 316 316 316 315 315 314 313 313 312 312 312 313 313 314 316 317 319 321 322 322 322 324 326 327 329 331 332 333 333 332 331 332 332 334 337 337 335 334 335 334 333 332 331 330 329 330 328 326 324 324 324 324 322 320 319 317 316 314 311 307 302 299 299 300 300 300 298 295 294 292 285 281 280 280
323 322 322 322 320 319 318 317 316 316 315 315 315 315 315 314 314 313 312 311 311 312 311 311 312 313 314 315 317 318 318 318 319 320 321 324 326 328 330 331 330 330 329 329 330 333 336 336 335 334 334 334 333 331 330 331 333 333 332 331 331 330 329 328 326 323 320 319 318 315 311 307 305 303 303 301 299 298 298 298 297 293 288 287 286
323 322 321 320 319 318 317 317 316 315 314 314 314 314 314 313 312 311 310 310 310 310 310 310 311 312 312 313 314 314 314 315 315 315 316 318 321 323 325 326 327 328 327 326 326 328 331 334 334 332 332 333 332 330 329 331 334 336 335 335 335 334 333 333 332 329 326 323 320 319 317 315 312 309 308 306 303 300 301 301 299 296 293 291 290
321 321 320 318 317 316 316 315 315 314 313 314 313 313 313 312 311 310 309 308 308 308 309 310 311 311 311 311 312 312 312 313 313 313 313 313 316 319 321 321 322 324 324 323 322 323 325 329 331 331 330 330 330 329 328 329 332 334 335 335 336 336 337 337 337 335 333 331 329 327 325 324 320 316 316 316 312 306 308 310 306 301 299 296 295
319 318 318 317 315 314 314 314 314 313 314 314 313 313 312 310 309 308 308 307 307 308 308 309 311 312 312 312 312 312 312 313 313 312 312 311 312 314 317 317 317 319 319 319 318 318 319 322 325 327 326 326 325 325 325 326 328 329 331 334 336 337 338 340 340 339 338 337 338 337 335 332 330 329 328 326 322 318 319 320 317 315 316 315 311
316 316 316 315 314 313 313 314 314 314 314 314 313 313 313 311 310 309 309 308 308 309 309 310 311 312 312 313 313 312 312 312 312 312 312 311 310 311 313 314 314 315 315 315 314 314 315 316 319 321 323 322 321 321 321 322 323 325 328 331 332 334 337 340 340 340 339 338 339 341 341 339 339 342 345 343 339 334 331 329 331 337 343 348 354
315 314 314 313 313 312 313 314 314 314 315 315 315 314 314 313 312 311 311 311 311 311 311 312 312 312 312 313 313 312 312 312 312 312 312 311 310 310 310 311 311 311 311 311 310 310 311 312 313 315 317 318 317 317 317 317 318 321 325 328 328 328 331 337 340 339 338 337 338 339 340 339 340 344 353 357 359 1 359 353 354 359 7 23 36
313 313 313 312 312 311 312 312 313 313 314 314 314 314 314 314 314 313 314 315 315 314 315 315 314 314 314 314 314 313 313 312 311 312 311 311 310 309 309 310 309 308 307 306 306 306 306 307 309 309 311 312 313 314 314 314 314 317 322 325 325 323 325 331 337 338 335 335 336 336 336 336 337 341 351 0 8 16 21 22 25 28 30 41 53
313 312 312 311 311 310 311 311 310 311 312 312 313 313 313 313 314 315 316 317 318 318 319 319 318 318 318 317 317 316 314 313 312 312 311 310 309 309 308 309 309 307 306 304 303 303 303 303 304 305 306 308 309 310 311 311 311 313 317 320 321 321 322 326 332 334 332 332 332 331 330 332 335 339 349 359 7 16 23 26 33 41 48 57 65
313 312 311 311 310 310 310 309 308 308 309 309 310 310 311 311 312 313 315 317 319 320 320 320 320 320 320 320 319 318 317 316 315 314 312 312 310 309 309 309 308 307 306 304 302 301 300 300 302 303 304 305 306 307 308 309 309 310 313 315 316 318 321 324 327 330 329 327 328 328 327 328 331 336 344 353 359 6 10 10 13 27 46 65 75
312 311 311 310 309 308 308 306 305 305 306 306 306 307 307 307 308 310 312 314 316 317 318 318 318 318 318 318 319 319 318 318 317 316 315 315 313 311 311 310 309 308 306 303 302 300 299 298 299 300 301 303 304 304 304 305 305 307 310 312 313 316 320 321 323 325 323 322 325 325 323 323 326 329 333 339 346 351 352 351 352 0 18 49 74
311 310 309 308 308 307 307 305 304 302 302 302 303 303 303 304 305 306 308 311 312 314 315 315 315 314 315 315 316 317 317 316 316 317 317 317 316 314 313 312 311 310 307 304 302 301 299 297 297 298 298 299 300 301 302 302 302 304 308 309 309 312 316 319 320 320 318 318 321 322 320 318 319 321 324 329 334 341 345 346 345 344 342 337 327